When you browse on this site, cookies collect data to enhance your experience and personalize the content and advertising you see.
Visit our Privacy Policy to learn more. By continuing to use the site, you agree to this use of cookies and data.
  • In Österreich
  • Länderverzeichnis
  • Für 7 Tage
  • Wassertemperatur
  • Satellitenkarten
  • Wetterkarte
  • News
  • Widgets
  • user-avatar
    Anmelden

    Stündliche Wetter Lubango

    Heute, 17 November, Samstag

    Zeit Temperatur Niederschläge Wind Luftdruck Luftfeuchtigkeit
    00:00 +18°C° 0 mm 1 m/S 609 mmHg 80%
    01:00 +18°C° 0 mm 1 m/S 609 mmHg 82%
    02:00 +16°C° 0 mm 1 m/S 609 mmHg 83%
    03:00 +16°C° 0 mm 1 m/S 608 mmHg 83%
    04:00 +16°C° 0 mm 1 m/S 608 mmHg 84%
    05:00 +18°C° 0 mm 1 m/S 609 mmHg 78%
    06:00 +19°C° 0 mm 1 m/S 610 mmHg 72%
    07:00 +20°C° 0 mm 1 m/S 610 mmHg 66%
    08:00 +23°C° 0 mm 1 m/S 612 mmHg 54%
    09:00 +26°C° 0 mm 1 m/S 613 mmHg 41%
    10:00 +29°C° 0 mm 1 m/S 614 mmHg 29%
    11:00 +30°C° 0 mm 2 m/S 614 mmHg 26%
    12:00 +31°C° 0 mm 2 m/S 613 mmHg 23%
    13:00 +33°C° 0 mm 3 m/S 613 mmHg 20%
    14:00 +31°C° 0 mm 3 m/S 612 mmHg 24%
    15:00 +30°C° 0 mm 3 m/S 611 mmHg 28%
    16:00 +29°C° 0 mm 4 m/S 611 mmHg 31%
    17:00 +26°C° 0.1 mm 3 m/S 610 mmHg 42%
    18:00 +24°C° 0.1 mm 3 m/S 610 mmHg 52%
    19:00 +20°C° 0.1 mm 3 m/S 609 mmHg 62%
    20:00 +19°C° 0 mm 3 m/S 610 mmHg 66%
    21:00 +18°C° 0 mm 2 m/S 610 mmHg 71%
    22:00 +17°C° 0 mm 2 m/S 610 mmHg 75%
    23:00 +18°C° 0 mm 1 m/S 610 mmHg 77%

    Morgen, 18 November, Sonntag

    Zeit Temperatur Niederschläge Wind Luftdruck Luftfeuchtigkeit
    00:00 +16°C° 0 mm 1 m/S 609 mmHg 79%
    01:00 +16°C° 0 mm 1 m/S 609 mmHg 81%
    02:00 +15°C° 0 mm 1 m/S 609 mmHg 82%
    03:00 +15°C° 0 mm 1 m/S 608 mmHg 82%
    04:00 +15°C° 0 mm 1 m/S 608 mmHg 82%
    05:00 +16°C° 0 mm 1 m/S 609 mmHg 74%
    06:00 +18°C° 0 mm 1 m/S 610 mmHg 66%
    07:00 +19°C° 0 mm 1 m/S 610 mmHg 58%
    08:00 +22°C° 0 mm 1 m/S 611 mmHg 47%
    09:00 +25°C° 0 mm 1 m/S 613 mmHg 37%
    10:00 +28°C° 0 mm 2 m/S 614 mmHg 26%
    11:00 +29°C° 0 mm 2 m/S 613 mmHg 24%
    12:00 +31°C° 0 mm 2 m/S 613 mmHg 22%
    13:00 +33°C° 0 mm 3 m/S 613 mmHg 20%
    14:00 +30°C° 0 mm 3 m/S 612 mmHg 23%
    15:00 +29°C° 0 mm 4 m/S 611 mmHg 26%
    16:00 +28°C° 0 mm 4 m/S 610 mmHg 29%
    17:00 +26°C° 0 mm 4 m/S 610 mmHg 36%
    18:00 +24°C° 0 mm 3 m/S 609 mmHg 43%
    19:00 +21°C° 0 mm 3 m/S 609 mmHg 50%
    20:00 +19°C° 0 mm 2 m/S 609 mmHg 55%
    21:00 +18°C° 0 mm 2 m/S 609 mmHg 60%
    22:00 +18°C° 0 mm 1 m/S 610 mmHg 65%
    23:00 +18°C° 0 mm 1 m/S 609 mmHg 68%

    übermorgen, 19 November, Montag

    Zeit Temperatur Niederschläge Wind Luftdruck Luftfeuchtigkeit
    00:00 +16°C° 0 mm 1 m/S 609 mmHg 70%
    01:00 +16°C° 0 mm 1 m/S 609 mmHg 73%
    02:00 +15°C° 0 mm 1 m/S 608 mmHg 74%
    03:00 +15°C° 0 mm 1 m/S 608 mmHg 76%
    04:00 +14°C° 0 mm 0 m/S 608 mmHg 77%
    05:00 +15°C° 0 mm 0 m/S 608 mmHg 70%
    06:00 +18°C° 0 mm 1 m/S 609 mmHg 63%
    07:00 +20°C° 0 mm 1 m/S 610 mmHg 56%
    08:00 +23°C° 0 mm 1 m/S 611 mmHg 47%
    09:00 +25°C° 0 mm 1 m/S 612 mmHg 37%
    10:00 +28°C° 0 mm 1 m/S 613 mmHg 28%
    11:00 +29°C° 0 mm 2 m/S 613 mmHg 26%
    12:00 +30°C° 0 mm 2 m/S 612 mmHg 24%
    13:00 +31°C° 0 mm 3 m/S 612 mmHg 22%
    14:00 +29°C° 0 mm 3 m/S 611 mmHg 26%
    15:00 +28°C° 0 mm 4 m/S 610 mmHg 30%
    16:00 +26°C° 0 mm 4 m/S 609 mmHg 34%
    17:00 +23°C° 0 mm 4 m/S 609 mmHg 39%
    18:00 +22°C° 0 mm 3 m/S 609 mmHg 43%
    19:00 +20°C° 0 mm 2 m/S 609 mmHg 48%
    20:00 +19°C° 0 mm 2 m/S 609 mmHg 52%
    21:00 +18°C° 0 mm 2 m/S 609 mmHg 55%
    22:00 +17°C° 0 mm 2 m/S 609 mmHg 59%
    23:00 +18°C° 0 mm 1 m/S 609 mmHg 62%

    20 November, Dienstag

    Zeit Temperatur Niederschläge Wind Luftdruck Luftfeuchtigkeit
    00:00 +16°C° 0 mm 1 m/S 609 mmHg 64%
    01:00 +15°C° 0 mm 1 m/S 608 mmHg 67%
    02:00 +16°C° 0 mm 1 m/S 608 mmHg 65%
    03:00 +15°C° 0 mm 0 m/S 608 mmHg 63%
    04:00 +15°C° 0 mm 0 m/S 608 mmHg 62%
    05:00 +16°C° 0 mm 0 m/S 609 mmHg 57%
    06:00 +18°C° 0 mm 0 m/S 610 mmHg 52%
    07:00 +21°C° 0 mm 1 m/S 610 mmHg 48%
    08:00 +23°C° 0 mm 1 m/S 611 mmHg 40%
    09:00 +26°C° 0 mm 1 m/S 612 mmHg 32%
    10:00 +29°C° 0 mm 1 m/S 614 mmHg 24%
    11:00 +30°C° 0 mm 2 m/S 613 mmHg 22%
    12:00 +31°C° 0 mm 2 m/S 613 mmHg 21%
    13:00 +32°C° 0 mm 2 m/S 612 mmHg 19%
    14:00 +31°C° 0 mm 3 m/S 611 mmHg 23%
    15:00 +29°C° 0 mm 3 m/S 610 mmHg 27%
    16:00 +27°C° 0 mm 4 m/S 609 mmHg 31%
    17:00 +25°C° 0 mm 3 m/S 609 mmHg 36%
    18:00 +22°C° 0 mm 3 m/S 609 mmHg 41%
    19:00 +21°C° 0 mm 2 m/S 609 mmHg 46%
    20:00 +20°C° 0 mm 2 m/S 609 mmHg 49%
    21:00 +19°C° 0 mm 2 m/S 610 mmHg 51%
    22:00 +20°C° 0 mm 1 m/S 610 mmHg 54%
    23:00 +19°C° 0 mm 1 m/S 609 mmHg 56%

    21 November, Mittwoch

    Zeit Temperatur Niederschläge Wind Luftdruck Luftfeuchtigkeit
    00:00 +18°C° 0 mm 1 m/S 609 mmHg 59%
    01:00 +18°C° 0 mm 1 m/S 608 mmHg 61%
    02:00 +16°C° 0 mm 1 m/S 608 mmHg 62%
    03:00 +16°C° 0 mm 1 m/S 608 mmHg 64%
    04:00 +15°C° 0 mm 1 m/S 607 mmHg 65%
    05:00 +18°C° 0 mm 1 m/S 608 mmHg 59%
    06:00 +19°C° 0 mm 1 m/S 609 mmHg 53%
    07:00 +20°C° 0 mm 1 m/S 610 mmHg 46%
    08:00 +23°C° 0 mm 1 m/S 611 mmHg 38%
    09:00 +26°C° 0 mm 1 m/S 612 mmHg 30%
    10:00 +29°C° 0 mm 1 m/S 613 mmHg 23%
    11:00 +30°C° 0 mm 2 m/S 613 mmHg 21%
    12:00 +31°C° 0 mm 2 m/S 613 mmHg 20%
    13:00 +33°C° 0 mm 3 m/S 612 mmHg 18%
    14:00 +31°C° 0 mm 3 m/S 611 mmHg 21%
    15:00 +29°C° 0 mm 4 m/S 611 mmHg 24%
    16:00 +28°C° 0 mm 4 m/S 610 mmHg 26%
    17:00 +26°C° 0 mm 4 m/S 610 mmHg 33%
    18:00 +24°C° 0 mm 3 m/S 609 mmHg 39%
    19:00 +20°C° 0 mm 3 m/S 609 mmHg 46%
    20:00 +19°C° 0 mm 2 m/S 609 mmHg 50%
    21:00 +18°C° 0 mm 2 m/S 609 mmHg 55%
    22:00 +18°C° 0 mm 1 m/S 609 mmHg 59%
    23:00 +18°C° 0 mm 1 m/S 609 mmHg 61%

    22 November, Donnerstag

    Zeit Temperatur Niederschläge Wind Luftdruck Luftfeuchtigkeit
    00:00 +16°C° 0 mm 1 m/S 608 mmHg 63%
    01:00 +15°C° 0 mm 1 m/S 608 mmHg 66%
    02:00 +15°C° 0 mm 1 m/S 607 mmHg 65%
    03:00 +15°C° 0 mm 1 m/S 607 mmHg 65%
    04:00 +15°C° 0 mm 1 m/S 607 mmHg 65%
    05:00 +16°C° 0 mm 1 m/S 608 mmHg 58%
    06:00 +18°C° 0 mm 1 m/S 608 mmHg 52%
    07:00 +20°C° 0 mm 1 m/S 609 mmHg 46%
    08:00 +22°C° 0 mm 1 m/S 610 mmHg 38%
    09:00 +25°C° 0 mm 2 m/S 611 mmHg 31%
    10:00 +28°C° 0 mm 2 m/S 612 mmHg 23%
    11:00 +29°C° 0 mm 2 m/S 612 mmHg 22%
    12:00 +30°C° 0 mm 3 m/S 612 mmHg 21%
    13:00 +31°C° 0 mm 3 m/S 612 mmHg 19%
    14:00 +30°C° 0 mm 4 m/S 611 mmHg 22%
    15:00 +29°C° 0 mm 4 m/S 610 mmHg 25%
    16:00 +28°C° 0 mm 5 m/S 610 mmHg 28%
    17:00 +26°C° 0 mm 4 m/S 609 mmHg 34%
    18:00 +22°C° 0 mm 3 m/S 609 mmHg 41%
    19:00 +20°C° 0 mm 3 m/S 609 mmHg 48%
    20:00 +19°C° 0 mm 2 m/S 609 mmHg 52%
    21:00 +18°C° 0 mm 2 m/S 608 mmHg 56%
    22:00 +18°C° 0 mm 1 m/S 608 mmHg 60%
    23:00 +16°C° 0 mm 1 m/S 608 mmHg 63%
    Mehr zeigen